Simultaneous Nadir Overpasses (SNOs) Predictions

Prediction of SNOs between FY3D and NOAA-19 Satellite Orbit:

Table of predicted SNOs for the next 14.0 days since TLE Epoch: 6/25/2022
Index Date (FY3D) Time (FY3D) Lat,Lon (FY3D) SZA (FY3D ) Date (NOAA-19) Time (NOAA-19) Lat,Lon (NOAA-19) SZA (NOAA-19 ) Distance(km) Time Diff (sec)
1 07/02/2022 05:00:22 -77.34, -90.98 125.15 07/02/2022 04:59:09 -77.33, -91.94 125.07 23.73 73
2 07/02/2022 05:51:11 77.44, 75.87 54.98 07/02/2022 05:50:09 77.45, 75.92 55.01 1.67 62
3 07/02/2022 06:41:56 -77.45,-116.87 125.00 07/02/2022 06:41:06 -77.44,-116.87 125.00 1.57 50
4 07/02/2022 07:32:43 77.47, 50.36 55.02 07/02/2022 07:32:09 77.45, 50.40 55.01 2.69 34
5 07/02/2022 08:23:27 -77.44,-142.18 125.02 07/02/2022 08:23:05 -77.48,-142.20 124.98 3.92 22
6 07/02/2022 09:14:14 77.46, 25.05 55.01 07/02/2022 09:14:08 77.48, 25.07 55.04 2.93 6
7 07/02/2022 10:04:58 -77.47,-167.69 124.98 07/02/2022 10:05:04 -77.47,-167.72 124.97 0.78 6
8 07/02/2022 10:55:45 77.48, -0.46 55.05 07/02/2022 10:56:07 77.48, -0.45 55.04 0.86 22
9 07/02/2022 11:46:30 -77.50, 166.80 124.94 07/02/2022 11:47:04 -77.47, 166.76 124.97 3.52 34
10 07/02/2022 12:37:17 77.51, -25.97 55.09 07/02/2022 12:38:07 77.47, -25.98 55.04 4.54 50
11 07/02/2022 13:28:01 -77.48, 141.49 124.95 07/02/2022 13:29:03 -77.50, 141.44 124.94 2.42 62
12 07/02/2022 14:18:52 77.66, -52.07 55.30 07/02/2022 14:20:03 77.63, -50.68 55.14 33.35 71



Historial Predications of SNOs between FY3D and NOAA-19
